Location: Cactus School
(34.5700°N, 118.0931°W)
Time: 09:11:28
(UTC-08:00)

Tiros 1 - Pass Details

Date: 28 November 2019
Orbit: 630 x 664 km, 48.4° (Epoch: 11 December)

Event Time Altitude Azimuth Distance (km) Brightness Sun altitude
Rises 17:39:42 0° 298° (WNW) 2,918 11.2 -11.8°
Reaches altitude 10° 17:42:13 10° 288° (WNW) 2,010 10.5 -12.3°
Maximum altitude 17:46:17 31° 226° (SW) 1,112 9.1 -13.1°
Drops below altitude 10° 17:50:22 10° 165° (SSE) 2,016 9.7 -13.9°
Sets 17:52:53 0° 155° (SSE) 2,927 10.4 -14.4°
